Hourly Data Report for September 22, 2014

All times are specified in Local Standard Time (LST). Add 1 hour to adjust for Daylight Saving Time where and when it is observed.

Metadata including Station Name, Province, Latitude, Longitude, Elevation, Climate ID, WMO ID, TC ID
PUVIRNITUQ A
QUEBEC
Latitude: 60°03'08.000" N Longitude: 77°17'15.000" W Elevation: 25.30 m
Climate ID: 7106223 WMO ID: TC ID: YPX
Hourly Data Report for September 21, 2014
Temp Definition
°C

Dew Point Temp Definition
°C

Rel Hum Definition
%

Wind Dir Definition
10's deg
Wind Spd Definition
km/h

Visibility Definition
km

Stn Press Definition
kPa

Hmdx Definition

Wind Chill Definition

Weather Definition

00:00 Legend Double Dagger 1.5 0.9 96 11 8 16.1 100.32 LegendNANA
01:00 Legend Double Dagger 1.4 1.0 97 36 5 16.1 100.36 LegendNANA
02:00 Legend Double Dagger 2.1 1.4 95 1 4 16.1 100.39 LegendNANA
03:00 Legend Double Dagger 1.6 1.2 97 29 5 16.1 100.41 LegendNANA
04:00 Legend Double Dagger 0.7 0.6 99 30 5 16.1 100.44 LegendNANA
05:00 Legend Double Dagger -0.1 -0.1 100 32 5 11.3 100.50 -2 LegendNANA
06:00 Legend Double Dagger -0.7 -0.7 100 31 11 16.1 100.55 -4 LegendNANA
07:00 Legend Double Dagger -0.2 -0.5 98 31 9 16.1 100.59 -3 LegendNANA
08:00 Legend Double Dagger 0.8 0.2 96 30 11 16.1 100.59 LegendNANA
09:00 Legend Double Dagger 2.3 0.8 90 31 15 16.1 100.60 LegendNANA
10:00 Legend Double Dagger 3.2 0.8 84 30 21 16.1 100.60 LegendNANA
11:00 Legend Double Dagger 2.6 -0.1 82 30 13 16.1 100.59 LegendNANA
12:00 Legend Double Dagger 2.8 -0.6 78 29 11 16.1 100.60 LegendNANA
13:00 Legend Double Dagger 3.6 -0.6 74 27 30 16.1 100.60 LegendNANA
14:00 Legend Double Dagger 3.9 -1.7 67 28 21 16.1 100.57 LegendNANA
15:00 Legend Double Dagger 3.6 -0.8 73 27 21 16.1 100.55 LegendNANA
16:00 Legend Double Dagger 3.4 -0.6 75 24 22 16.1 100.51 LegendNANA
17:00 Legend Double Dagger 2.9 -0.9 76 24 26 16.1 100.47 LegendNANA
18:00 Legend Double Dagger 3.1 0.0 80 22 30 16.1 100.43 LegendNANA
19:00 Legend Double Dagger 3.3 0.7 83 21 34 16.1 100.38 LegendNANA
20:00 Legend Double Dagger 3.3 2.3 93 21 26 11.3 100.33 Rain
21:00 Legend Double Dagger 4.0 3.4 96 21 30 16.1 100.26 Rain
22:00 Legend Double Dagger 4.1 3.4 95 23 28 14.5 100.22 Rain
23:00 Legend Double Dagger 4.1 2.6 90 24 37 16.1 100.17 Rain

Notes on Data Quality.

Legend
  • E = Estimated
  • M = Missing
  • NA = Not Available
  • ‡ = Partner data that is not subject to review by the National Climate Archives